Time,TemperatureF,DewpointF,PressureIn,WindDirection,WindDirectionDegrees,WindSpeedMPH,WindSpeedGustMPH,Humidity,HourlyPrecipIn,Conditions,Clouds,dailyrainin,SoftwareType,DateUTC
2013-05-07 00:01:00,55.4,45.9,29.55,South,177,1.2,3.4,70,0.00,,,0.00,WUHU216HW,2013-05-07 07:01:00,
2013-05-07 00:06:00,55.4,46.3,29.55,SW,232,2.0,3.4,71,0.00,,,0.00,WUHU216HW,2013-05-07 07:06:00,
2013-05-07 00:11:00,55.3,45.7,29.56,SE,128,0.5,3.1,70,0.00,,,0.00,WUHU216HW,2013-05-07 07:11:00,
2013-05-07 00:16:00,55.1,45.9,29.56,SSE,151,1.2,2.0,71,0.00,,,0.00,WUHU216HW,2013-05-07 07:16:00,
2013-05-07 00:21:00,55.1,45.9,29.56,South,183,0.7,2.0,71,0.00,,,0.00,WUHU216HW,2013-05-07 07:21:00,
2013-05-07 00:26:00,54.7,46.3,29.56,South,191,1.0,2.0,73,0.00,,,0.00,WUHU216HW,2013-05-07 07:26:00,
2013-05-07 00:31:00,54.5,45.7,29.56,NE,44,0.2,2.0,72,0.00,,,0.00,WUHU216HW,2013-05-07 07:31:00,
2013-05-07 00:36:00,54.4,45.9,29.56,SSE,150,0.4,2.0,73,0.00,,,0.00,WUHU216HW,2013-05-07 07:36:00,
2013-05-07 00:41:00,54.4,45.9,29.56,North,354,0.4,2.0,73,0.00,,,0.00,WUHU216HW,2013-05-07 07:41:00,
2013-05-07 00:47:00,54.2,45.7,29.56,West,270,0.4,1.3,73,0.00,,,0.00,WUHU216HW,2013-05-07 07:47:00,
2013-05-07 00:52:00,54.2,45.7,29.57,NW,309,0.3,1.1,73,0.00,,,0.00,WUHU216HW,2013-05-07 07:52:00,
2013-05-07 00:57:00,54.2,45.4,29.57,SW,225,1.1,1.1,72,0.00,,,0.00,WUHU216HW,2013-05-07 07:57:00,
2013-05-07 01:02:00,54.2,45.7,29.57,SSW,203,0.7,1.3,73,0.00,,,0.00,WUHU216HW,2013-05-07 08:02:00,
2013-05-07 01:07:00,54.0,45.6,29.57,SW,225,0.0,1.3,73,0.00,,,0.00,WUHU216HW,2013-05-07 08:07:00,
2013-05-07 01:12:00,54.0,45.6,29.57,SE,134,0.3,0.9,73,0.00,,,0.00,WUHU216HW,2013-05-07 08:12:00,
2013-05-07 01:17:00,53.6,45.2,29.57,WSW,248,1.5,1.8,73,0.00,,,0.00,WUHU216HW,2013-05-07 08:17:00,
2013-05-07 01:22:00,53.6,45.2,29.57,NW,315,0.9,1.8,73,0.00,,,0.00,WUHU216HW,2013-05-07 08:22:00,
2013-05-07 01:27:00,53.6,45.2,29.57,West,270,0.2,1.3,73,0.00,,,0.00,WUHU216HW,2013-05-07 08:27:00,
2013-05-07 01:32:00,53.6,45.2,29.57,West,259,0.3,0.9,73,0.00,,,0.00,WUHU216HW,2013-05-07 08:32:00,
2013-05-07 01:37:00,53.6,45.2,29.57,North,357,0.3,0.4,73,0.00,,,0.00,WUHU216HW,2013-05-07 08:37:00,
2013-05-07 01:42:00,53.6,45.2,29.57,West,270,0.4,0.7,73,0.00,,,0.00,WUHU216HW,2013-05-07 08:42:00,
2013-05-07 01:47:00,53.6,45.2,29.57,SE,135,0.9,1.6,73,0.00,,,0.00,WUHU216HW,2013-05-07 08:47:00,
2013-05-07 01:52:00,53.5,45.4,29.57,East,90,0.2,1.6,74,0.00,,,0.00,WUHU216HW,2013-05-07 08:52:00,
2013-05-07 01:57:00,53.5,45.0,29.57,SE,131,0.7,0.9,73,0.00,,,0.00,WUHU216HW,2013-05-07 08:57:00,
2013-05-07 02:02:00,53.3,44.8,29.57,West,270,0.2,0.9,73,0.00,,,0.00,WUHU216HW,2013-05-07 09:02:00,
2013-05-07 02:07:00,52.9,44.6,29.56,East,90,0.4,0.7,73,0.00,,,0.00,WUHU216HW,2013-05-07 09:07:00,
2013-05-07 02:12:00,52.9,44.6,29.56,WSW,248,0.4,0.4,73,0.00,,,0.00,WUHU216HW,2013-05-07 09:12:00,
2013-05-07 02:17:00,52.9,44.6,29.57,WSW,248,0.0,0.4,73,0.00,,,0.00,WUHU216HW,2013-05-07 09:17:00,
2013-05-07 02:22:00,52.9,44.6,29.57,WNW,293,0.0,0.4,73,0.00,,,0.00,WUHU216HW,2013-05-07 09:22:00,
2013-05-07 02:27:00,52.7,44.7,29.57,WSW,248,0.0,0.4,74,0.00,,,0.00,WUHU216HW,2013-05-07 09:27:00,
2013-05-07 02:32:00,52.7,44.7,29.57,South,180,0.0,0.4,74,0.00,,,0.00,WUHU216HW,2013-05-07 09:32:00,
2013-05-07 02:37:00,52.6,44.6,29.57,SE,135,0.0,0.4,74,0.00,,,0.00,WUHU216HW,2013-05-07 09:37:00,
2013-05-07 02:42:00,52.6,44.6,29.57,SE,135,0.0,0.4,74,0.00,,,0.00,WUHU216HW,2013-05-07 09:42:00,
2013-05-07 02:47:00,52.4,44.4,29.57,SE,135,0.2,0.2,74,0.00,,,0.00,WUHU216HW,2013-05-07 09:47:00,
2013-05-07 02:52:00,52.4,44.4,29.57,SW,225,0.0,0.2,74,0.00,,,0.00,WUHU216HW,2013-05-07 09:52:00,
2013-05-07 02:57:00,52.2,44.2,29.57,SSW,203,0.0,0.2,74,0.00,,,0.00,WUHU216HW,2013-05-07 09:57:00,
2013-05-07 03:02:00,52.2,44.6,29.57,SSW,203,0.0,0.2,75,0.00,,,0.00,WUHU216HW,2013-05-07 10:02:00,
2013-05-07 03:07:00,52.2,44.6,29.57,SSW,203,0.0,0.0,75,0.00,,,0.00,WUHU216HW,2013-05-07 10:07:00,
2013-05-07 03:12:00,52.0,44.4,29.57,NW,315,0.0,0.0,75,0.00,,,0.00,WUHU216HW,2013-05-07 10:12:00,
2013-05-07 03:17:00,51.8,44.2,29.57,NW,315,0.0,0.0,75,0.00,,,0.00,WUHU216HW,2013-05-07 10:17:00,
2013-05-07 03:22:00,51.8,44.2,29.57,NW,315,0.0,0.0,75,0.00,,,0.00,WUHU216HW,2013-05-07 10:22:00,
2013-05-07 03:27:00,51.7,44.0,29.57,NW,315,0.0,0.0,75,0.00,,,0.00,WUHU216HW,2013-05-07 10:27:00,
2013-05-07 03:32:00,51.7,44.0,29.57,NW,315,0.0,0.0,75,0.00,,,0.00,WUHU216HW,2013-05-07 10:32:00,
2013-05-07 03:37:00,51.5,43.8,29.57,NW,315,0.0,0.0,75,0.00,,,0.00,WUHU216HW,2013-05-07 10:37:00,
2013-05-07 03:42:00,51.5,43.8,29.57,NW,315,0.0,0.0,75,0.00,,,0.00,WUHU216HW,2013-05-07 10:42:00,
2013-05-07 03:47:00,51.5,43.8,29.57,NW,315,0.0,0.0,75,0.00,,,0.00,WUHU216HW,2013-05-07 10:47:00,
2013-05-07 03:52:00,51.3,44.0,29.57,NW,315,0.0,0.0,76,0.00,,,0.00,WUHU216HW,2013-05-07 10:52:00,
2013-05-07 03:57:00,51.1,43.8,29.57,NW,315,0.0,0.0,76,0.00,,,0.00,WUHU216HW,2013-05-07 10:57:00,
2013-05-07 04:02:00,51.1,43.8,29.57,NW,315,0.0,0.0,76,0.00,,,0.00,WUHU216HW,2013-05-07 11:02:00,
2013-05-07 04:07:00,50.9,43.7,29.58,NW,315,0.0,0.0,76,0.00,,,0.00,WUHU216HW,2013-05-07 11:07:00,
2013-05-07 04:12:00,50.8,43.5,29.58,West,270,0.0,0.4,76,0.00,,,0.00,WUHU216HW,2013-05-07 11:12:00,
2013-05-07 04:17:00,50.8,43.8,29.57,West,270,0.0,0.4,77,0.00,,,0.00,WUHU216HW,2013-05-07 11:17:00,
2013-05-07 04:22:00,50.6,43.7,29.57,WSW,248,0.0,0.0,77,0.00,,,0.00,WUHU216HW,2013-05-07 11:22:00,
2013-05-07 04:27:00,50.6,43.7,29.57,WSW,248,0.0,0.0,77,0.00,,,0.00,WUHU216HW,2013-05-07 11:27:00,
2013-05-07 04:32:00,50.4,43.5,29.57,WSW,248,0.0,0.0,77,0.00,,,0.00,WUHU216HW,2013-05-07 11:32:00,
2013-05-07 04:37:00,50.4,43.5,29.57,WSW,248,0.0,0.0,77,0.00,,,0.00,WUHU216HW,2013-05-07 11:37:00,
2013-05-07 04:42:00,50.2,43.3,29.57,WSW,248,0.0,0.0,77,0.00,,,0.00,WUHU216HW,2013-05-07 11:42:00,
2013-05-07 04:47:00,50.2,43.3,29.58,WSW,248,0.0,0.0,77,0.00,,,0.00,WUHU216HW,2013-05-07 11:47:00,
2013-05-07 04:52:00,50.0,43.1,29.58,WSW,248,0.0,0.0,77,0.00,,,0.00,WUHU216HW,2013-05-07 11:52:00,
2013-05-07 04:57:00,50.0,43.4,29.58,WSW,248,0.0,0.0,78,0.00,,,0.00,WUHU216HW,2013-05-07 11:57:00,
2013-05-07 05:02:00,50.0,43.4,29.58,WSW,248,0.0,0.0,78,0.00,,,0.00,WUHU216HW,2013-05-07 12:02:00,
2013-05-07 05:07:00,50.0,43.4,29.58,WSW,248,0.0,0.0,78,0.00,,,0.00,WUHU216HW,2013-05-07 12:07:00,
2013-05-07 05:12:00,49.9,43.2,29.58,WSW,248,0.0,0.0,78,0.00,,,0.00,WUHU216HW,2013-05-07 12:12:00,
2013-05-07 05:17:00,49.7,43.0,29.58,WSW,248,0.0,0.0,78,0.00,,,0.00,WUHU216HW,2013-05-07 12:17:00,
2013-05-07 05:22:00,49.7,43.0,29.58,WSW,248,0.0,0.0,78,0.00,,,0.00,WUHU216HW,2013-05-07 12:22:00,
2013-05-07 05:27:00,49.3,42.7,29.58,WSW,248,0.0,0.0,78,0.00,,,0.00,WUHU216HW,2013-05-07 12:27:00,
2013-05-07 05:32:00,49.3,42.7,29.59,SW,225,0.0,0.0,78,0.00,,,0.00,WUHU216HW,2013-05-07 12:32:00,
2013-05-07 05:37:00,49.1,42.5,29.59,SW,225,0.0,0.0,78,0.00,,,0.00,WUHU216HW,2013-05-07 12:37:00,
2013-05-07 05:42:00,49.1,42.5,29.59,SW,225,0.0,0.0,78,0.00,,,0.00,WUHU216HW,2013-05-07 12:42:00,
2013-05-07 05:47:00,49.0,42.3,29.59,SW,225,0.0,0.0,78,0.00,,,0.00,WUHU216HW,2013-05-07 12:47:00,
2013-05-07 05:52:00,49.0,42.3,29.59,WSW,248,0.0,0.0,78,0.00,,,0.00,WUHU216HW,2013-05-07 12:52:00,
2013-05-07 05:57:00,48.8,42.5,29.59,WSW,248,0.0,0.0,79,0.00,,,0.00,WUHU216HW,2013-05-07 12:57:00,
2013-05-07 06:02:00,48.8,42.5,29.59,WSW,248,0.0,0.0,79,0.00,,,0.00,WUHU216HW,2013-05-07 13:02:00,
2013-05-07 06:07:00,48.6,42.3,29.59,SW,225,0.0,0.0,79,0.00,,,0.00,WUHU216HW,2013-05-07 13:07:00,
2013-05-07 06:12:00,48.8,42.5,29.60,SW,225,0.0,0.0,79,0.00,,,0.00,WUHU216HW,2013-05-07 13:12:00,
2013-05-07 06:17:00,48.6,42.3,29.60,SW,225,0.0,0.0,79,0.00,,,0.00,WUHU216HW,2013-05-07 13:17:00,
2013-05-07 06:22:00,48.8,42.8,29.60,SW,225,0.0,0.0,80,0.00,,,0.00,WUHU216HW,2013-05-07 13:22:00,
2013-05-07 06:27:00,49.0,43.0,29.60,SW,225,0.0,0.0,80,0.00,,,0.00,WUHU216HW,2013-05-07 13:27:00,
2013-05-07 06:32:00,49.1,43.2,29.60,SW,225,0.0,0.0,80,0.00,,,0.00,WUHU216HW,2013-05-07 13:32:00,
2013-05-07 06:37:00,49.3,43.4,29.60,SW,225,0.0,0.0,80,0.00,,,0.00,WUHU216HW,2013-05-07 13:37:00,
2013-05-07 06:42:00,49.3,43.4,29.60,WSW,248,0.0,0.0,80,0.00,,,0.00,WUHU216HW,2013-05-07 13:42:00,
2013-05-07 06:47:00,49.7,43.7,29.60,WSW,248,0.0,0.0,80,0.00,,,0.00,WUHU216HW,2013-05-07 13:47:00,
2013-05-07 06:52:00,50.0,44.1,29.60,WSW,248,0.0,0.0,80,0.00,,,0.00,WUHU216HW,2013-05-07 13:52:00,
2013-05-07 06:57:00,50.2,44.3,29.60,WSW,248,0.0,0.0,80,0.00,,,0.00,WUHU216HW,2013-05-07 13:57:00,
2013-05-07 07:02:00,50.6,44.6,29.60,WSW,248,0.0,0.0,80,0.00,,,0.00,WUHU216HW,2013-05-07 14:02:00,
2013-05-07 07:07:00,50.9,45.0,29.60,WSW,248,0.0,0.0,80,0.00,,,0.00,WUHU216HW,2013-05-07 14:07:00,
2013-05-07 07:12:00,51.3,45.4,29.60,WSW,248,0.0,0.0,80,0.00,,,0.00,WUHU216HW,2013-05-07 14:12:00,
2013-05-07 07:17:00,52.0,46.1,29.60,WSW,248,0.0,0.0,80,0.00,,,0.00,WUHU216HW,2013-05-07 14:17:00,
2013-05-07 07:22:00,54.4,48.7,29.60,WSW,248,0.0,0.0,81,0.00,,,0.00,WUHU216HW,2013-05-07 14:22:00,
2013-05-07 07:27:00,56.7,50.6,29.61,NW,315,0.0,0.0,80,0.00,,,0.00,WUHU216HW,2013-05-07 14:27:00,
2013-05-07 07:32:00,59.0,51.8,29.61,WSW,248,1.3,1.3,77,0.00,,,0.00,WUHU216HW,2013-05-07 14:32:00,
2013-05-07 07:37:00,60.8,52.2,29.61,West,270,1.8,1.8,73,0.00,,,0.00,WUHU216HW,2013-05-07 14:37:00,
2013-05-07 07:42:00,61.9,52.5,29.60,West,270,0.8,1.8,71,0.00,,,0.00,WUHU216HW,2013-05-07 14:42:00,
2013-05-07 07:47:00,63.0,53.1,29.61,SW,223,1.3,2.7,70,0.00,,,0.00,WUHU216HW,2013-05-07 14:47:00,
2013-05-07 07:52:00,63.9,52.3,29.61,SSE,158,1.3,2.7,66,0.00,,,0.00,WUHU216HW,2013-05-07 14:52:00,
2013-05-07 07:57:00,64.4,52.8,29.61,ENE,77,0.7,2.0,66,0.00,,,0.00,WUHU216HW,2013-05-07 14:57:00,
2013-05-07 08:02:00,65.2,53.1,29.61,SSE,150,1.5,2.2,65,0.00,,,0.00,WUHU216HW,2013-05-07 15:02:00,
2013-05-07 08:07:00,66.4,53.8,29.61,SE,132,1.9,2.9,64,0.00,,,0.00,WUHU216HW,2013-05-07 15:07:00,
2013-05-07 08:12:00,67.3,53.5,29.61,SSE,159,0.5,2.9,61,0.00,,,0.00,WUHU216HW,2013-05-07 15:12:00,
2013-05-07 08:17:00,67.7,53.3,29.61,SE,134,1.5,3.1,60,0.00,,,0.00,WUHU216HW,2013-05-07 15:17:00,
2013-05-07 08:22:00,69.1,54.2,29.61,SE,135,2.0,3.1,59,0.00,,,0.00,WUHU216HW,2013-05-07 15:22:00,
2013-05-07 08:27:00,69.3,53.4,29.61,SSE,151,1.2,2.5,57,0.00,,,0.00,WUHU216HW,2013-05-07 15:27:00,
2013-05-07 08:32:00,68.8,52.4,29.61,West,261,0.9,2.5,56,0.00,,,0.00,WUHU216HW,2013-05-07 15:32:00,
2013-05-07 08:37:00,67.9,51.6,29.61,SSE,155,0.3,4.0,56,0.00,,,0.00,WUHU216HW,2013-05-07 15:37:00,
2013-05-07 08:42:00,67.9,52.0,29.61,WSW,248,1.6,4.0,57,0.00,,,0.00,WUHU216HW,2013-05-07 15:42:00,
2013-05-07 08:47:00,67.3,51.0,29.61,SE,135,0.7,2.7,56,0.00,,,0.00,WUHU216HW,2013-05-07 15:47:00,
2013-05-07 08:52:00,67.3,51.0,29.61,SW,235,2.2,3.6,56,0.00,,,0.00,WUHU216HW,2013-05-07 15:52:00,
2013-05-07 08:57:00,67.3,52.0,29.61,SE,135,1.1,3.6,58,0.00,,,0.00,WUHU216HW,2013-05-07 15:57:00,
2013-05-07 09:02:00,68.4,52.6,29.61,WSW,248,1.8,2.7,57,0.00,,,0.00,WUHU216HW,2013-05-07 16:02:00,
2013-05-07 09:07:00,69.3,51.9,29.62,SW,225,3.4,3.8,54,0.00,,,0.00,WUHU216HW,2013-05-07 16:07:00,
2013-05-07 09:12:00,68.9,52.0,29.62,ENE,68,3.4,3.8,55,0.00,,,0.00,WUHU216HW,2013-05-07 16:12:00,
2013-05-07 09:17:00,70.2,53.3,29.62,South,181,1.2,3.4,55,0.00,,,0.00,WUHU216HW,2013-05-07 16:17:00,
2013-05-07 09:22:00,70.0,52.6,29.61,SW,225,1.3,3.6,54,0.00,,,0.00,WUHU216HW,2013-05-07 16:22:00,
2013-05-07 09:27:00,69.7,51.2,29.61,SW,235,2.2,4.3,52,0.00,,,0.00,WUHU216HW,2013-05-07 16:27:00,
2013-05-07 09:32:00,69.3,51.0,29.61,SW,229,3.4,4.3,52,0.00,,,0.00,WUHU216HW,2013-05-07 16:32:00,
2013-05-07 09:37:00,68.9,51.1,29.61,SSE,148,1.2,4.0,53,0.00,,,0.00,WUHU216HW,2013-05-07 16:37:00,
2013-05-07 09:42:00,68.9,51.1,29.61,SSW,193,1.3,3.4,53,0.00,,,0.00,WUHU216HW,2013-05-07 16:42:00,
2013-05-07 09:47:00,68.8,51.0,29.61,NW,315,1.6,3.8,53,0.00,,,0.00,WUHU216HW,2013-05-07 16:47:00,
2013-05-07 09:52:00,69.1,52.2,29.61,WSW,254,2.1,4.0,55,0.00,,,0.00,WUHU216HW,2013-05-07 16:52:00,
2013-05-07 09:57:00,70.0,52.6,29.61,West,270,4.3,4.3,54,0.00,,,0.00,WUHU216HW,2013-05-07 16:57:00,
2013-05-07 10:02:00,70.2,53.3,29.61,SSE,147,2.4,4.3,55,0.00,,,0.00,WUHU216HW,2013-05-07 17:02:00,
2013-05-07 10:07:00,69.8,51.9,29.61,SW,217,2.3,4.3,53,0.00,,,0.00,WUHU216HW,2013-05-07 17:07:00,
2013-05-07 10:12:00,69.8,52.4,29.61,West,265,1.8,3.6,54,0.00,,,0.00,WUHU216HW,2013-05-07 17:12:00,
2013-05-07 10:17:00,70.6,53.6,29.61,WNW,301,2.2,3.4,55,0.00,,,0.00,WUHU216HW,2013-05-07 17:17:00,
2013-05-07 10:22:00,70.7,52.8,29.61,WSW,258,2.4,4.3,53,0.00,,,0.00,WUHU216HW,2013-05-07 17:22:00,
2013-05-07 10:27:00,70.4,52.4,29.61,NW,315,1.3,4.3,53,0.00,,,0.00,WUHU216HW,2013-05-07 17:27:00,
2013-05-07 10:32:00,70.6,52.6,29.61,WSW,251,2.1,4.7,53,0.00,,,0.00,WUHU216HW,2013-05-07 17:32:00,
2013-05-07 10:37:00,70.6,52.6,29.61,SW,216,2.1,4.7,53,0.00,,,0.00,WUHU216HW,2013-05-07 17:37:00,
2013-05-07 10:42:00,70.2,52.7,29.61,SE,135,3.6,4.3,54,0.00,,,0.00,WUHU216HW,2013-05-07 17:42:00,
2013-05-07 10:47:00,70.7,53.2,29.61,WSW,251,1.9,5.1,54,0.00,,,0.00,WUHU216HW,2013-05-07 17:47:00,
2013-05-07 10:52:00,70.7,52.8,29.61,SW,226,1.7,5.1,53,0.00,,,0.00,WUHU216HW,2013-05-07 17:52:00,
2013-05-07 10:57:00,70.9,53.4,29.61,WSW,248,3.3,5.4,54,0.00,,,0.00,WUHU216HW,2013-05-07 17:57:00,
2013-05-07 11:02:00,70.9,52.9,29.61,SSW,203,4.9,5.4,53,0.00,,,0.00,WUHU216HW,2013-05-07 18:02:00,
2013-05-07 11:07:00,70.9,52.9,29.61,WSW,253,2.7,4.9,53,0.00,,,0.00,WUHU216HW,2013-05-07 18:07:00,
2013-05-07 11:12:00,71.1,53.0,29.61,WSW,239,2.8,4.7,53,0.00,,,0.00,WUHU216HW,2013-05-07 18:12:00,
2013-05-07 11:17:00,70.9,53.4,29.61,SE,135,2.0,4.3,54,0.00,,,0.00,WUHU216HW,2013-05-07 18:17:00,
2013-05-07 11:22:00,71.1,53.0,29.61,WNW,290,3.0,4.7,53,0.00,,,0.00,WUHU216HW,2013-05-07 18:22:00,
2013-05-07 11:27:00,70.9,52.9,29.61,SW,229,3.0,5.4,53,0.00,,,0.00,WUHU216HW,2013-05-07 18:27:00,
2013-05-07 11:32:00,71.1,53.6,29.61,NNE,23,1.8,5.4,54,0.00,,,0.00,WUHU216HW,2013-05-07 18:32:00,
2013-05-07 11:37:00,70.9,52.9,29.61,SSE,157,2.9,4.7,53,0.00,,,0.00,WUHU216HW,2013-05-07 18:37:00,
2013-05-07 11:42:00,70.7,52.8,29.61,WNW,288,1.4,4.0,53,0.00,,,0.00,WUHU216HW,2013-05-07 18:42:00,
2013-05-07 11:47:00,70.9,53.4,29.61,ESE,119,2.8,5.1,54,0.00,,,0.00,WUHU216HW,2013-05-07 18:47:00,
2013-05-07 11:52:00,70.7,53.2,29.61,South,181,2.1,5.1,54,0.00,,,0.00,WUHU216HW,2013-05-07 18:52:00,
2013-05-07 11:57:00,70.9,53.4,29.60,SSE,158,2.2,4.3,54,0.00,,,0.00,WUHU216HW,2013-05-07 18:57:00,
2013-05-07 12:02:00,71.1,53.6,29.60,SSE,160,2.8,5.8,54,0.00,,,0.00,WUHU216HW,2013-05-07 19:02:00,
2013-05-07 12:07:00,70.9,53.4,29.60,SSW,203,2.0,5.8,54,0.00,,,0.00,WUHU216HW,2013-05-07 19:07:00,
2013-05-07 12:12:00,70.7,53.7,29.60,West,270,4.3,4.3,55,0.00,,,0.00,WUHU216HW,2013-05-07 19:12:00,
2013-05-07 12:17:00,71.3,54.2,29.60,SW,221,2.2,4.3,55,0.00,,,0.00,WUHU216HW,2013-05-07 19:17:00,
2013-05-07 12:22:00,71.3,53.7,29.60,SE,145,2.1,4.3,54,0.00,,,0.00,WUHU216HW,2013-05-07 19:22:00,
2013-05-07 12:27:00,71.5,54.4,29.60,SSW,197,1.2,2.7,55,0.00,,,0.00,WUHU216HW,2013-05-07 19:27:00,
2013-05-07 12:32:00,71.6,55.1,29.60,West,261,3.1,5.1,56,0.00,,,0.00,WUHU216HW,2013-05-07 19:32:00,
2013-05-07 12:37:00,71.6,54.0,29.60,SW,225,2.9,5.1,54,0.00,,,0.00,WUHU216HW,2013-05-07 19:37:00,
2013-05-07 12:42:00,71.3,54.2,29.59,SSE,155,2.0,5.1,55,0.00,,,0.00,WUHU216HW,2013-05-07 19:42:00,
2013-05-07 12:47:00,71.5,54.4,29.59,NW,315,2.5,5.8,55,0.00,,,0.00,WUHU216HW,2013-05-07 19:47:00,
2013-05-07 12:52:00,71.6,54.5,29.59,SSW,203,2.0,5.8,55,0.00,,,0.00,WUHU216HW,2013-05-07 19:52:00,
2013-05-07 12:57:00,71.6,54.0,29.59,SE,132,1.2,3.1,54,0.00,,,0.00,WUHU216HW,2013-05-07 19:57:00,
2013-05-07 13:02:00,71.6,54.0,29.59,SW,225,3.8,4.7,54,0.00,,,0.00,WUHU216HW,2013-05-07 20:02:00,
2013-05-07 13:07:00,72.2,55.0,29.59,SSW,201,1.8,4.7,55,0.00,,,0.00,WUHU216HW,2013-05-07 20:07:00,
2013-05-07 13:12:00,72.2,55.5,29.59,SE,135,1.8,4.7,56,0.00,,,0.00,WUHU216HW,2013-05-07 20:12:00,
2013-05-07 13:17:00,72.4,55.2,29.59,WSW,248,2.5,2.9,55,0.00,,,0.00,WUHU216HW,2013-05-07 20:17:00,
2013-05-07 13:22:00,72.7,55.0,29.59,WSW,248,2.0,2.5,54,0.00,,,0.00,WUHU216HW,2013-05-07 20:22:00,
2013-05-07 13:27:00,72.7,55.0,29.58,SSE,158,1.3,3.8,54,0.00,,,0.00,WUHU216HW,2013-05-07 20:27:00,
2013-05-07 13:32:00,72.5,54.8,29.58,SSE,150,1.8,4.0,54,0.00,,,0.00,WUHU216HW,2013-05-07 20:32:00,
2013-05-07 13:37:00,72.7,55.0,29.58,SW,225,3.1,4.3,54,0.00,,,0.00,WUHU216HW,2013-05-07 20:37:00,
2013-05-07 13:42:00,73.1,55.4,29.58,South,180,1.3,4.7,54,0.00,,,0.00,WUHU216HW,2013-05-07 20:42:00,
2013-05-07 13:47:00,73.1,54.8,29.58,SSE,149,0.9,4.7,53,0.00,,,0.00,WUHU216HW,2013-05-07 20:47:00,
2013-05-07 13:52:00,72.9,54.2,29.58,West,278,1.5,3.6,52,0.00,,,0.00,WUHU216HW,2013-05-07 20:52:00,
2013-05-07 13:58:00,72.5,54.4,29.57,West,270,1.1,3.6,53,0.00,,,0.00,WUHU216HW,2013-05-07 20:58:00,
2013-05-07 14:03:00,72.9,54.6,29.57,West,272,3.9,5.8,53,0.00,,,0.00,WUHU216HW,2013-05-07 21:03:00,
2013-05-07 14:08:00,72.9,54.6,29.57,South,180,3.4,5.8,53,0.00,,,0.00,WUHU216HW,2013-05-07 21:08:00,
2013-05-07 14:13:00,72.7,54.6,29.57,NW,315,2.5,7.6,53,0.00,,,0.00,WUHU216HW,2013-05-07 21:13:00,
2013-05-07 14:18:00,72.7,53.5,29.57,SW,225,1.1,7.6,51,0.00,,,0.00,WUHU216HW,2013-05-07 21:18:00,
2013-05-07 14:23:00,72.7,53.5,29.57,SW,225,1.1,2.7,51,0.00,,,0.00,WUHU216HW,2013-05-07 21:23:00,
2013-05-07 14:47:00,73.1,54.4,29.56,SE,135,1.6,1.6,52,0.00,,,0.00,WUHU216HW,2013-05-07 21:47:00,
2013-05-07 14:52:00,73.1,54.4,29.56,SE,135,1.6,1.6,52,0.00,,,0.00,WUHU216HW,2013-05-07 21:52:00,
2013-05-07 14:57:00,73.1,54.4,29.56,SE,135,1.6,1.6,52,0.00,,,0.00,WUHU216HW,2013-05-07 21:57:00,
2013-05-07 15:02:00,73.8,55.5,29.56,SE,135,1.8,1.8,53,0.00,,,0.00,WUHU216HW,2013-05-07 22:02:00,
2013-05-07 15:07:00,73.8,55.5,29.56,SE,135,1.8,1.8,53,0.00,,,0.00,WUHU216HW,2013-05-07 22:07:00,
2013-05-07 15:30:00,74.0,55.2,29.55,NW,315,0.2,0.2,52,0.00,,,0.00,WUHU216HW,2013-05-07 22:30:00,
2013-05-07 15:35:00,74.0,55.2,29.55,NW,315,0.2,0.2,52,0.00,,,0.00,WUHU216HW,2013-05-07 22:35:00,
2013-05-07 15:40:00,74.0,55.2,29.55,NW,315,0.2,0.2,52,0.00,,,0.00,WUHU216HW,2013-05-07 22:40:00,
2013-05-07 16:00:00,74.5,54.1,29.55,SW,225,1.3,1.3,49,0.00,,,0.00,WUHU216HW,2013-05-07 23:00:00,
2013-05-07 16:05:00,74.5,54.7,29.55,South,180,2.2,2.2,50,0.00,,,0.00,WUHU216HW,2013-05-07 23:05:00,
2013-05-07 16:10:00,74.5,54.7,29.55,South,180,2.2,2.2,50,0.00,,,0.00,WUHU216HW,2013-05-07 23:10:00,
2013-05-07 16:30:00,75.1,54.0,29.55,East,90,1.1,1.1,48,0.00,,,0.00,WUHU216HW,2013-05-07 23:30:00,
2013-05-07 16:35:00,75.1,54.0,29.55,East,90,1.1,1.1,48,0.00,,,0.00,WUHU216HW,2013-05-07 23:35:00,
2013-05-07 16:40:00,75.1,54.0,29.55,East,90,1.1,1.1,48,0.00,,,0.00,WUHU216HW,2013-05-07 23:40:00,
2013-05-07 17:00:00,74.9,52.7,29.55,West,270,1.6,1.6,46,0.00,,,0.00,WUHU216HW,2013-05-08 00:00:00,
2013-05-07 17:05:00,74.9,52.7,29.55,WSW,248,3.8,3.8,46,0.00,,,0.00,WUHU216HW,2013-05-08 00:05:00,
2013-05-07 17:10:00,74.9,52.7,29.55,WSW,248,3.8,3.8,46,0.00,,,0.00,WUHU216HW,2013-05-08 00:10:00,
2013-05-07 17:30:00,74.2,51.4,29.56,West,270,4.3,4.3,45,0.00,,,0.00,WUHU216HW,2013-05-08 00:30:00,
2013-05-07 17:35:00,74.2,51.4,29.56,WSW,248,4.5,4.5,45,0.00,,,0.00,WUHU216HW,2013-05-08 00:35:00,
2013-05-07 17:40:00,74.2,51.4,29.56,WSW,248,4.5,4.5,45,0.00,,,0.00,WUHU216HW,2013-05-08 00:40:00,
2013-05-07 18:00:00,73.1,51.6,29.57,West,270,0.4,0.4,47,0.00,,,0.00,WUHU216HW,2013-05-08 01:00:00,
2013-05-07 18:05:00,73.1,51.6,29.57,ESE,113,0.9,0.9,47,0.00,,,0.00,WUHU216HW,2013-05-08 01:05:00,
2013-05-07 18:10:00,73.1,51.6,29.57,ESE,113,0.9,0.9,47,0.00,,,0.00,WUHU216HW,2013-05-08 01:10:00,
2013-05-07 18:30:00,71.8,51.6,29.57,SW,225,2.2,2.2,49,0.00,,,0.00,WUHU216HW,2013-05-08 01:30:00,
2013-05-07 18:35:00,71.8,51.6,29.57,SW,225,5.4,5.4,49,0.00,,,0.00,WUHU216HW,2013-05-08 01:35:00,
2013-05-07 18:40:00,71.8,51.6,29.57,SW,225,5.4,5.4,49,0.00,,,0.00,WUHU216HW,2013-05-08 01:40:00,
2013-05-07 19:00:00,70.6,51.0,29.57,West,270,2.5,2.5,50,0.00,,,0.00,WUHU216HW,2013-05-08 02:00:00,
2013-05-07 19:05:00,70.4,50.9,29.57,West,270,1.1,2.5,50,0.00,,,0.00,WUHU216HW,2013-05-08 02:05:00,
2013-05-07 19:10:00,70.4,50.9,29.57,West,270,1.1,2.5,50,0.00,,,0.00,WUHU216HW,2013-05-08 02:10:00,
2013-05-07 19:30:00,68.0,49.2,29.57,West,270,0.7,0.7,51,0.00,,,0.00,WUHU216HW,2013-05-08 02:30:00,
2013-05-07 19:35:00,67.9,49.2,29.57,West,270,0.7,0.7,51,0.00,,,0.00,WUHU216HW,2013-05-08 02:35:00,
2013-05-07 19:40:00,67.9,49.2,29.57,West,270,0.7,0.7,51,0.00,,,0.00,WUHU216HW,2013-05-08 02:40:00,
2013-05-07 20:00:00,64.8,48.2,29.58,SSE,158,0.2,0.2,55,0.00,,,0.00,WUHU216HW,2013-05-08 03:00:00,
2013-05-07 20:05:00,64.8,48.2,29.58,SSE,158,0.0,0.2,55,0.00,,,0.00,WUHU216HW,2013-05-08 03:05:00,
2013-05-07 20:10:00,64.8,48.2,29.58,SSE,158,0.0,0.0,55,0.00,,,0.00,WUHU216HW,2013-05-08 03:10:00,
2013-05-07 20:30:00,62.3,47.4,29.60,SE,135,0.0,0.0,58,0.00,,,0.00,WUHU216HW,2013-05-08 03:30:00,
2013-05-07 20:35:00,62.3,47.4,29.60,SE,135,0.2,0.2,58,0.00,,,0.00,WUHU216HW,2013-05-08 03:35:00,
2013-05-07 20:40:00,62.3,47.4,29.60,SE,135,0.2,0.2,58,0.00,,,0.00,WUHU216HW,2013-05-08 03:40:00,
2013-05-07 21:00:00,60.1,46.7,29.61,SE,135,0.0,0.0,61,0.00,,,0.00,WUHU216HW,2013-05-08 04:00:00,
2013-05-07 21:01:00,60.1,46.7,29.61,SE,135,0.0,0.0,61,0.00,,,0.00,WUHU216HW,2013-05-08 04:01:00,
2013-05-07 21:06:00,60.1,46.7,29.61,SE,135,0.0,0.0,61,0.00,,,0.00,WUHU216HW,2013-05-08 04:06:00,
2013-05-07 21:30:00,58.5,45.9,29.63,East,90,0.2,0.2,63,0.00,,,0.00,WUHU216HW,2013-05-08 04:30:00,
2013-05-07 21:35:00,58.5,45.9,29.63,East,90,0.4,0.4,63,0.00,,,0.00,WUHU216HW,2013-05-08 04:35:00,
2013-05-07 21:40:00,58.5,45.9,29.63,East,90,0.4,0.4,63,0.00,,,0.00,WUHU216HW,2013-05-08 04:40:00,
2013-05-07 22:00:00,56.5,45.3,29.65,SE,135,0.0,0.0,66,0.00,,,0.00,WUHU216HW,2013-05-08 05:00:00,
2013-05-07 22:05:00,56.5,45.3,29.65,SE,135,0.0,0.0,66,0.00,,,0.00,WUHU216HW,2013-05-08 05:05:00,
2013-05-07 22:10:00,56.5,45.3,29.65,SE,135,0.0,0.0,66,0.00,,,0.00,WUHU216HW,2013-05-08 05:10:00,
2013-05-07 22:30:00,54.9,44.9,29.66,SE,135,0.0,0.0,69,0.00,,,0.00,WUHU216HW,2013-05-08 05:30:00,
2013-05-07 22:35:00,54.9,44.9,29.66,SE,135,0.0,0.0,69,0.00,,,0.00,WUHU216HW,2013-05-08 05:35:00,
2013-05-07 22:40:00,54.9,44.9,29.66,SE,135,0.0,0.0,69,0.00,,,0.00,WUHU216HW,2013-05-08 05:40:00,
2013-05-07 23:00:00,54.0,44.8,29.67,SSE,158,0.2,0.2,71,0.00,,,0.00,WUHU216HW,2013-05-08 06:00:00,
2013-05-07 23:05:00,54.0,44.8,29.67,SSE,158,0.2,0.2,71,0.00,,,0.00,WUHU216HW,2013-05-08 06:05:00,
2013-05-07 23:10:00,54.0,44.8,29.67,SSE,158,0.2,0.2,71,0.00,,,0.00,WUHU216HW,2013-05-08 06:10:00,
2013-05-07 23:30:00,53.3,44.1,29.67,SW,225,0.0,0.0,71,0.00,,,0.00,WUHU216HW,2013-05-08 06:30:00,
2013-05-07 23:35:00,53.3,44.1,29.67,SW,225,0.0,0.0,71,0.00,,,0.00,WUHU216HW,2013-05-08 06:35:00,
2013-05-07 23:40:00,53.3,44.1,29.67,SW,225,0.0,0.0,71,0.00,,,0.00,WUHU216HW,2013-05-08 06:40:00,